ONEWEB-0379, 49305

Orbit data source: Space-Track

ONEWEB-0379, 49305 is a payload satellite owned by One Web (NAA) (UK) in LEO that was launched on Thu, 14 Oct 2021 UTC via a SOYUZ-2-1B launch vehicle from the Vostochny Cosmodrome (VOSTO). Payload-class satellites include a variety of spacecraft equipped with specific instruments for various scientific and technological missions. These include communications satellites like Starlink; space stations such as the ISS; scientific satellites like the Hubble; Earth observation satellites from companies like Planet Labs, Umbra, and HawkEye 360; GPS; miniature CubeSats for education and research; and military/defense satellites.

Loading next visibility...
Identifier
49305, 2021-090AC
Orbit
LEO
Country
Flag of UKUK
Related business
Manufacturer
One Web
Mission
Operational Commercial Communications
Bus & Motor
ARROW, Unknown motor
Mass
148 kg wet, ~140 kg dry
Launch date (UTC)
2021-10-14 (5 years ago)
Launch vehicle
SOYUZ-2-1B
Launch site
Vostochny Cosmodrome (VOSTO)
Object type
Payload
Rocket body
Debris
Shape & HBR
Trap Box + 2 Pan, 6.7 m
Radar Cross Section
3.464 m², Large (>1 m²)

Expand to show TLE details & history
Last TLE update: 2 days ago

TLE from 2 days ago
0 ONEWEB-0379
1 49305U 21090AC  26171.31091957  .00000260  00000-0  66796-3 0  9990
2 49305  87.8967 289.0853 0001904  97.0243 263.1103 13.14503076227975
Epoch: 2026-06-20T07:27Z
TLE epoch observation values (Epoch: 2026-06-20T07:27:43.450Z)
Latitude
-0.00007°
Longitude
-91.37311°
Altitude
1,208.857 km
Speed
7.25 km/s
True Right ascension
19h 16m 20s
True Declination
0° 00' 00"
Sunlit
Object was in full shadow at epoch
Visualization orbit readout
Latitude
Unknown
Longitude
Unknown
Altitude
Unknown
Speed
Unknown
Apparent Right ascension
Unknown
Apparent Declination
Unknown
Sunlit
N/A
Visualization observer readout
Local Sidereal Time
21:41:21
Azimuth
Unknown
Elevation
Unknown
Doppler factor
Unknown
Orbital elements
Apogee altitude
1,204.346 km
Perigee altitude
1,201.459 km
Semi-major axis
7,581.04 km
Eccentricity
0.00019
Inclination
87.8967°
RAAN
289.0853°
Arg. of periapsis
97.0243°
True anomaly
263.08864°
Mean anomaly
263.1103°
Eccentric anomaly
263.09947°
Mean motion
3.28814 °/min
Orbital period
109.48 mins
BSTAR
0.00066796
Loading maneuver chart data...
Computing Atmospheric mass density...
Loading historical data...
Loading historical data...
Loading historical data...
Loading historical data...
Loading historical data...
Loading historical data...
Loading historical data...

Documentation

Showing up to 5 results
|